Flag for United Kingdom Weather past 2 weeks in Oldham, England, United Kingdom

Now
55 °F

Partly sunny.


Feels Like: 52 °F
Forecast: 47 / 59 °F
Wind: 13 mph from Northwest

Location: Manchester Airport

Current Time: Jul 28, 2015 at 9:46:28 AM

Latest Report: Jul 28, 2015 at 9:20 AM


Visibility: N/A

Pressure: 29.59 "Hg

Humidity: 100%

Dew point: 55 °F

Location of OldhamLocation

Historic Weather in Oldham — Graph

°F

Oldham temperature yesterday

Maximum temperature yesterday: 61 °F (at 2:20 PM)
Minimum temperature yesterday: 55 °F (at 12:20 AM)
Average temperature yesterday: 57 °F

Past Weeks' High & Low Weather Summary

 TemperatureHumidityPressure
High72 °F (Jul 16, 3:50 PM)100% (Jul 13, 10:50 AM)30.15 "Hg (Jul 13, 10:50 AM)
Low45 °F (Jul 16, 4:50 AM)46% (Jul 17, 4:50 PM)29.33 "Hg (Jul 26, 10:50 PM)
Average59 °F79%29.85 "Hg
* Reported Jul 13 8:20 AM — Jul 28 8:20 AM, Oldham, Weather by CustomWeather, © 2015

Note: Actual official high and low records may vary slightly from our data, if they occured in-between our weather recording intervals... More about our weather records

Advertising

Oldham weather history for previous 24 hours

 ConditionsComfort  
Time TempWeatherWind HumidityBarometerVisibility
8:20 AM
Tue, Jul 28
55 °FScattered showers. Partly sunny.9 mph94%29.56 "HgN/A
7:50 AM54 °FScattered showers. Partly sunny.12 mph94%29.56 "HgN/A
7:20 AM54 °FPartly sunny.9 mph94%29.56 "HgN/A
6:50 AM54 °FPartly sunny.9 mph94%29.56 "HgN/A
6:20 AM54 °FPartly sunny.9 mph94%29.56 "HgN/A
5:50 AM54 °FPartly cloudy.9 mph94%29.56 "HgN/A
5:20 AM54 °FPartly cloudy.8 mph94%29.56 "HgN/A
4:50 AM54 °FPartly cloudy.10 mph94%29.53 "HgN/A
4:20 AM54 °FPartly cloudy.14 mph94%29.53 "HgN/A
3:50 AM54 °FPassing clouds.16 mph100%29.53 "HgN/A
3:20 AM54 °FPassing clouds.16 mph100%29.53 "Hg5 mi
2:50 AM55 °FPassing clouds.17 mph100%29.53 "Hg5 mi
2:20 AM55 °FMostly cloudy.14 mph100%29.53 "HgN/A
1:50 AM55 °FLight rain. Mostly cloudy.15 mph100%29.53 "Hg4 mi
1:20 AM57 °FMostly cloudy.13 mph100%29.50 "Hg4 mi
12:50 AM57 °FMostly cloudy.9 mph100%29.50 "HgN/A
12:20 AM55 °FRain. Overcast.6 mph100%29.50 "Hg2 mi
11:50 PM
Mon, Jul 27
55 °FRain. Passing clouds.7 mph100%29.50 "Hg4 mi
11:20 PM57 °FLight rain. Partly cloudy.6 mph94%29.53 "Hg6 mi
10:20 PM55 °FPassing clouds.6 mph100%29.53 "HgN/A
9:50 PM55 °FPartly sunny.6 mph100%29.53 "HgN/A
9:20 PM57 °FPartly sunny.6 mph94%29.53 "HgN/A
8:50 PM57 °FPartly sunny.7 mph100%29.50 "HgN/A
8:20 PM57 °FScattered showers. Partly sunny.6 mph100%29.50 "HgN/A
7:50 PM57 °FScattered showers. Partly sunny.8 mph100%29.50 "HgN/A
7:20 PM57 °FScattered showers. Partly sunny.6 mph100%29.50 "HgN/A
6:50 PM57 °FLight rain. Partly sunny.3 mph100%29.50 "HgN/A
6:20 PM57 °FRain. Broken clouds.3 mph94%29.50 "Hg2 mi
5:50 PM57 °FDrizzle. Partly sunny.5 mph100%29.50 "Hg2 mi
5:20 PM57 °FLight rain. Partly sunny.5 mph94%29.50 "Hg4 mi
4:50 PM59 °FLight rain. Partly sunny.5 mph88%29.50 "Hg4 mi
4:20 PM61 °FRain showers. Partly sunny.3 mph77%29.50 "HgN/A
3:50 PM61 °FScattered showers. Scattered clouds.3 mph83%29.50 "HgN/A
3:20 PM61 °FScattered showers. Scattered clouds.6 mph77%29.50 "HgN/A
2:50 PM61 °FBroken clouds.6 mph83%29.47 "HgN/A
2:20 PM61 °FBroken clouds.9 mph77%29.47 "HgN/A
1:50 PM59 °FBroken clouds.8 mph88%29.47 "HgN/A
1:20 PM59 °FBroken clouds.12 mph88%29.47 "HgN/A
12:50 PM59 °FBroken clouds.10 mph88%29.47 "HgN/A
12:20 PM59 °FBroken clouds.13 mph88%29.47 "HgN/A
11:50 AM59 °FScattered showers. Broken clouds.12 mph94%29.47 "HgN/A
11:20 AM57 °FScattered showers. Partly sunny.14 mph100%29.45 "HgN/A
10:50 AM57 °FDrizzle. Broken clouds.13 mph100%29.45 "Hg4 mi
10:20 AM57 °FDrizzle. Partly sunny.15 mph100%29.45 "Hg2 mi
9:50 AM57 °FDrizzle. Partly sunny.15 mph100%29.42 "Hg2 mi
9:20 AM57 °FDrizzle. Partly sunny.14 mph100%29.42 "Hg4 mi
Weather by CustomWeather, © 2015

See weather overviewHow to use our weather pages